When you browse on this site, cookies collect data to enhance your experience and personalize the content and advertising you see.
Visit our Privacy Policy to learn more. By continuing to use the site, you agree to this use of cookies and data.
  • In United Kingdom
  • List of Countries
  • For 7 days
  • Water Temperature
  • Satellite Maps
  • Weather Map
  • Weather Widgets
  • user-avatar
    Login

    Hourly Weather Santo Domingo Zanatepec

    Today, 20 January, Sunday

    Time Temperature Precipitation Wind Pressure Humidity
    00:00 +26°C° 0 mm 7 mps 757 mmHg 71%
    01:00 +26°C° 0.1 mm 7 mps 757 mmHg 68%
    02:00 +26°C° 0.1 mm 7 mps 757 mmHg 66%
    03:00 +24°C° 0.1 mm 7 mps 757 mmHg 63%
    04:00 +24°C° 0 mm 7 mps 758 mmHg 62%
    05:00 +24°C° 0 mm 7 mps 758 mmHg 61%
    06:00 +23°C° 0 mm 7 mps 758 mmHg 60%
    07:00 +24°C° 0 mm 7 mps 759 mmHg 58%
    08:00 +24°C° 0 mm 8 mps 759 mmHg 57%
    09:00 +24°C° 0 mm 8 mps 760 mmHg 55%
    10:00 +26°C° 0 mm 8 mps 760 mmHg 52%
    11:00 +27°C° 0 mm 8 mps 759 mmHg 50%
    12:00 +28°C° 0 mm 8 mps 759 mmHg 47%
    13:00 +28°C° 0 mm 8 mps 759 mmHg 47%
    14:00 +28°C° 0 mm 8 mps 758 mmHg 48%
    15:00 +27°C° 0 mm 8 mps 758 mmHg 48%
    16:00 +26°C° 0 mm 7 mps 758 mmHg 51%
    17:00 +24°C° 0 mm 7 mps 758 mmHg 54%
    18:00 +23°C° 0 mm 7 mps 758 mmHg 56%
    19:00 +23°C° 0 mm 7 mps 758 mmHg 56%
    20:00 +22°C° 0 mm 6 mps 759 mmHg 56%
    21:00 +22°C° 0 mm 6 mps 759 mmHg 56%
    22:00 +22°C° 0 mm 6 mps 759 mmHg 56%
    23:00 +21°C° 0 mm 6 mps 759 mmHg 56%

    Tomorrow, 21 January, Monday

    Time Temperature Precipitation Wind Pressure Humidity
    00:00 +21°C° 0 mm 6 mps 759 mmHg 56%
    01:00 +21°C° 0 mm 5 mps 759 mmHg 57%
    02:00 +21°C° 0 mm 5 mps 758 mmHg 58%
    03:00 +20°C° 0 mm 5 mps 758 mmHg 59%
    04:00 +20°C° 0 mm 5 mps 758 mmHg 59%
    05:00 +20°C° 0 mm 5 mps 758 mmHg 58%
    06:00 +20°C° 0 mm 5 mps 758 mmHg 58%
    07:00 +21°C° 0 mm 4 mps 758 mmHg 55%
    08:00 +22°C° 0 mm 4 mps 759 mmHg 51%
    09:00 +23°C° 0 mm 4 mps 759 mmHg 47%
    10:00 +26°C° 0 mm 4 mps 759 mmHg 42%
    11:00 +28°C° 0 mm 4 mps 758 mmHg 37%
    12:00 +31°C° 0 mm 3 mps 758 mmHg 31%
    13:00 +31°C° 0 mm 3 mps 757 mmHg 31%
    14:00 +33°C° 0 mm 3 mps 756 mmHg 31%
    15:00 +33°C° 0 mm 3 mps 755 mmHg 30%
    16:00 +30°C° 0 mm 3 mps 755 mmHg 36%
    17:00 +29°C° 0 mm 3 mps 755 mmHg 42%
    18:00 +27°C° 0 mm 3 mps 755 mmHg 48%
    19:00 +25°C° 0 mm 3 mps 756 mmHg 53%
    20:00 +24°C° 0 mm 3 mps 756 mmHg 58%
    21:00 +22°C° 0 mm 3 mps 757 mmHg 63%
    22:00 +21°C° 0 mm 3 mps 756 mmHg 65%
    23:00 +21°C° 0 mm 3 mps 756 mmHg 66%

    Day after tomorrow, 22 January, Tuesday

    Time Temperature Precipitation Wind Pressure Humidity
    00:00 +20°C° 0 mm 3 mps 756 mmHg 67%
    01:00 +20°C° 0 mm 3 mps 756 mmHg 69%
    02:00 +20°C° 0 mm 2 mps 755 mmHg 70%
    03:00 +20°C° 0 mm 2 mps 755 mmHg 71%
    04:00 +20°C° 0 mm 2 mps 755 mmHg 71%
    05:00 +20°C° 0 mm 2 mps 755 mmHg 71%
    06:00 +19°C° 0 mm 2 mps 755 mmHg 71%
    07:00 +23°C° 0 mm 2 mps 755 mmHg 61%
    08:00 +25°C° 0 mm 1 mps 756 mmHg 51%
    09:00 +28°C° 0 mm 1 mps 756 mmHg 41%
    10:00 +30°C° 0 mm 1 mps 756 mmHg 36%
    11:00 +33°C° 0 mm 1 mps 755 mmHg 30%
    12:00 +36°C° 0 mm 2 mps 755 mmHg 24%
    13:00 +36°C° 0 mm 2 mps 754 mmHg 24%
    14:00 +36°C° 0 mm 2 mps 753 mmHg 24%
    15:00 +36°C° 0 mm 2 mps 752 mmHg 24%
    16:00 +34°C° 0 mm 2 mps 752 mmHg 29%
    17:00 +31°C° 0 mm 1 mps 752 mmHg 34%
    18:00 +29°C° 0 mm 1 mps 752 mmHg 39%
    19:00 +28°C° 0 mm 1 mps 753 mmHg 40%
    20:00 +27°C° 0 mm 1 mps 754 mmHg 41%
    21:00 +26°C° 0 mm 1 mps 754 mmHg 42%
    22:00 +25°C° 0 mm 1 mps 754 mmHg 42%
    23:00 +25°C° 0 mm 1 mps 754 mmHg 41%

    23 January, Wednesday

    Time Temperature Precipitation Wind Pressure Humidity
    00:00 +25°C° 0 mm 1 mps 754 mmHg 41%
    01:00 +25°C° 0 mm 1 mps 753 mmHg 42%
    02:00 +25°C° 0 mm 1 mps 753 mmHg 42%
    03:00 +25°C° 0 mm 1 mps 752 mmHg 42%
    04:00 +25°C° 0 mm 1 mps 753 mmHg 42%
    05:00 +24°C° 0 mm 1 mps 753 mmHg 42%
    06:00 +24°C° 0 mm 2 mps 753 mmHg 42%
    07:00 +27°C° 0 mm 1 mps 753 mmHg 39%
    08:00 +29°C° 0 mm 1 mps 754 mmHg 35%
    09:00 +31°C° 0 mm 1 mps 754 mmHg 32%
    10:00 +32°C° 0 mm 1 mps 754 mmHg 30%
    11:00 +35°C° 0 mm 2 mps 754 mmHg 28%
    12:00 +37°C° 0 mm 2 mps 754 mmHg 27%
    13:00 +37°C° 0 mm 2 mps 754 mmHg 29%
    14:00 +36°C° 0 mm 3 mps 753 mmHg 31%
    15:00 +36°C° 0 mm 4 mps 753 mmHg 33%
    16:00 +34°C° 0.1 mm 4 mps 754 mmHg 43%
    17:00 +32°C° 0.1 mm 5 mps 754 mmHg 53%
    18:00 +29°C° 0.1 mm 5 mps 755 mmHg 62%
    19:00 +28°C° 0 mm 5 mps 755 mmHg 63%
    20:00 +28°C° 0 mm 5 mps 756 mmHg 64%
    21:00 +27°C° 0 mm 5 mps 757 mmHg 65%
    22:00 +27°C° 0 mm 5 mps 757 mmHg 65%
    23:00 +26°C° 0 mm 5 mps 757 mmHg 64%

    24 January, Thursday

    Time Temperature Precipitation Wind Pressure Humidity
    00:00 +26°C° 0 mm 5 mps 757 mmHg 64%
    01:00 +26°C° 0 mm 5 mps 757 mmHg 64%
    02:00 +25°C° 0 mm 5 mps 756 mmHg 65%
    03:00 +25°C° 0 mm 5 mps 756 mmHg 65%
    04:00 +25°C° 0 mm 5 mps 756 mmHg 65%
    05:00 +25°C° 0 mm 5 mps 757 mmHg 65%
    06:00 +25°C° 0 mm 5 mps 757 mmHg 64%
    07:00 +25°C° 0 mm 5 mps 757 mmHg 62%
    08:00 +26°C° 0 mm 6 mps 758 mmHg 59%
    09:00 +27°C° 0 mm 6 mps 759 mmHg 56%
    10:00 +28°C° 0 mm 6 mps 758 mmHg 53%
    11:00 +29°C° 0 mm 6 mps 758 mmHg 49%
    12:00 +30°C° 0 mm 6 mps 758 mmHg 46%
    13:00 +30°C° 0 mm 6 mps 757 mmHg 46%
    14:00 +30°C° 0 mm 5 mps 756 mmHg 46%
    15:00 +30°C° 0 mm 5 mps 756 mmHg 46%
    16:00 +28°C° 0 mm 5 mps 756 mmHg 50%
    17:00 +27°C° 0 mm 5 mps 756 mmHg 55%
    18:00 +25°C° 0 mm 5 mps 756 mmHg 59%
    19:00 +25°C° 0 mm 5 mps 756 mmHg 61%
    20:00 +23°C° 0 mm 4 mps 757 mmHg 63%
    21:00 +22°C° 0 mm 4 mps 757 mmHg 65%
    22:00 +22°C° 0 mm 4 mps 757 mmHg 66%
    23:00 +22°C° 0 mm 4 mps 757 mmHg 68%

    25 January, Friday

    Time Temperature Precipitation Wind Pressure Humidity
    00:00 +22°C° 0 mm 3 mps 757 mmHg 69%
    01:00 +21°C° 0 mm 3 mps 757 mmHg 69%
    02:00 +21°C° 0 mm 3 mps 756 mmHg 70%
    03:00 +21°C° 0 mm 3 mps 756 mmHg 70%
    04:00 +21°C° 0 mm 3 mps 756 mmHg 71%
    05:00 +21°C° 0 mm 3 mps 757 mmHg 71%
    06:00 +21°C° 0 mm 3 mps 757 mmHg 71%
    07:00 +22°C° 0 mm 4 mps 758 mmHg 66%
    08:00 +25°C° 0 mm 4 mps 759 mmHg 61%
    09:00 +26°C° 0 mm 5 mps 759 mmHg 56%
    10:00 +27°C° 0 mm 5 mps 759 mmHg 52%
    11:00 +28°C° 0 mm 6 mps 759 mmHg 48%
    12:00 +30°C° 0 mm 6 mps 759 mmHg 44%
    13:00 +30°C° 0 mm 6 mps 759 mmHg 44%
    14:00 +30°C° 0 mm 6 mps 758 mmHg 44%
    15:00 +30°C° 0 mm 6 mps 757 mmHg 43%
    16:00 +28°C° 0 mm 6 mps 757 mmHg 48%
    17:00 +27°C° 0 mm 6 mps 758 mmHg 52%
    18:00 +26°C° 0 mm 6 mps 758 mmHg 57%
    19:00 +24°C° 0 mm 6 mps 758 mmHg 58%
    20:00 +24°C° 0 mm 6 mps 759 mmHg 58%
    21:00 +23°C° 0 mm 6 mps 759 mmHg 59%
    22:00 +23°C° 0 mm 6 mps 759 mmHg 59%
    23:00 +23°C° 0 mm 6 mps 759 mmHg 59%
    Show more